CW9854 Weather Reports


Display with metric or nautical units.
time (UTC)temp
F
wind
direction
speed
MPH
gust
MPH
rain 1hr
in
rain 24hr
in
rain mn
in
humidity
%
barometer
mb
20260508081003 41 144 1.0 2.0 0.00 0.11 0.00 95 1011.1
20260508080503 41 130 1.0 2.0 0.00 0.11 0.00 95 1011.1
20260508080004 40 0 0.0 0.0 0.00 0.11 0.00 95 1011.1
20260508075503 40 0 0.0 0.0 0.00 0.11 0.00 95 1011.1
20260508075003 40 0 0.0 0.0 0.00 0.11 0.00 95 1011.1
20260508074503 40 0 0.0 0.0 0.00 0.11 0.00 95 1011.1
20260508074003 40 0 0.0 0.0 0.00 0.11 0.00 95 1011.1
20260508073503 40 0 0.0 0.0 0.00 0.11 0.00 95 1011.1
20260508073003 40 0 0.0 0.0 0.00 0.11 0.00 95 1011.2
20260508072503 39 0 0.0 0.0 0.00 0.11 0.00 95 1011.2
20260508072004 39 0 0.0 0.0 0.00 0.11 0.00 95 1011.2
20260508071503 39 0 0.0 0.0 0.00 0.11 0.00 95 1011.2
20260508071003 39 0 0.0 0.0 0.00 0.11 0.00 95 1011.2
20260508070503 39 0 0.0 0.0 0.00 0.11 0.00 94 1011.3
20260508070004 39 0 0.0 0.0 0.00 0.11 0.00 95 1011.4
20260508065504 39 0 0.0 0.0 0.00 0.11 0.00 94 1011.4
20260508065003 38 0 0.0 0.0 0.00 0.11 0.00 94 1011.4
20260508064503 38 0 0.0 0.0 0.00 0.11 0.00 94 1011.4
20260508064003 38 0 0.0 0.0 0.00 0.11 0.00 94 1011.3
20260508063503 38 0 0.0 0.0 0.00 0.11 0.00 94 1011.4
20260508063003 38 0 0.0 0.0 0.00 0.11 0.00 94 1011.3
20260508062503 38 0 0.0 0.0 0.00 0.11 0.00 94 1011.4
20260508062218 38 0 0.0 0.0 0.00 0.11 0.00 94 1011.4
20260508061503 38 0 0.0 0.0 0.00 0.11 0.00 94 1011.4
20260508061218 38 0 0.0 0.0 0.00 0.11 0.00 94 1011.5
20260508060719 38 0 0.0 0.0 0.00 0.11 0.00 94 1011.5
20260508060003 38 0 0.0 0.0 0.00 0.11 0.00 94 1011.3
20260508055503 38 0 0.0 0.0 0.00 0.11 0.00 94 1011.3
20260508055003 38 0 0.0 0.0 0.00 0.11 0.00 93 1011.4
20260508054503 38 0 0.0 0.0 0.00 0.11 0.00 93 1011.5
20260508054003 38 0 0.0 0.0 0.00 0.11 0.00 93 1011.6
20260508053503 38 0 0.0 0.0 0.00 0.11 0.00 93 1011.4
20260508053003 38 0 0.0 0.0 0.00 0.11 0.00 93 1011.4
20260508052718 38 0 0.0 0.0 0.00 0.11 0.00 93 1011.6
20260508052003 38 0 0.0 0.0 0.00 0.11 0.00 93 1011.6
20260508051508 39 0 0.0 0.0 0.00 0.11 0.00 93 1011.5
20260508051003 39 0 0.0 0.0 0.00 0.11 0.00 93 1011.6
20260508050503 39 0 0.0 0.0 0.00 0.11 0.00 93 1011.8
20260508050003 39 0 0.0 0.0 0.00 0.11 0.00 93 1011.8
20260508045503 39 0 0.0 0.0 0.00 0.11 0.00 93 1011.9
20260508045217 39 0 0.0 0.0 0.00 0.11 0.00 93 1011.8
20260508044503 39 0 0.0 0.0 0.00 0.11 0.00 93 1011.7
20260508044003 39 0 0.0 0.0 0.00 0.11 0.00 93 1011.6
20260508043503 39 0 0.0 0.0 0.00 0.11 0.00 93 1011.6
20260508043003 40 0 0.0 0.0 0.00 0.11 0.00 93 1011.6
20260508042503 40 0 0.0 0.0 0.00 0.11 0.00 93 1011.6
20260508042003 40 0 0.0 0.0 0.00 0.11 0.00 92 1011.8
20260508041504 40 0 0.0 0.0 0.00 0.11 0.00 92 1011.7
20260508041003 40 0 0.0 0.0 0.00 0.11 0.00 92 1011.6
20260508040503 40 0 0.0 0.0 0.00 0.11 0.00 92 1011.6
20260508040004 40 0 0.0 0.0 0.00 0.11 0.00 92 1011.6
20260508035719 40 0 0.0 0.0 0.00 0.11 0.11 92 1011.7
20260508035003 40 0 0.0 0.0 0.00 0.11 0.11 92 1011.7
20260508034503 40 0 0.0 0.0 0.00 0.11 0.11 92 1011.7
20260508034003 40 0 0.0 0.0 0.00 0.11 0.11 92 1011.7
20260508033503 40 0 0.0 0.0 0.00 0.11 0.11 92 1011.8
20260508033003 40 130 0.0 1.0 0.00 0.11 0.11 92 1011.7
20260508032503 41 130 0.0 1.0 0.01 0.11 0.11 92 1011.7
20260508032003 41 130 0.0 1.0 0.01 0.11 0.11 91 1011.7
20260508031503 41 0 0.0 0.0 0.02 0.11 0.11 91 1011.5
20260508031003 41 0 0.0 0.0 0.03 0.11 0.11 91 1011.5
20260508030718 41 0 0.0 0.0 0.04 0.11 0.11 91 1011.4
20260508030004 42 0 0.0 0.0 0.04 0.11 0.11 91 1011.4
20260508025503 42 0 0.0 0.0 0.05 0.11 0.11 92 1011.4
20260508025003 42 0 0.0 0.0 0.05 0.11 0.11 92 1011.4
20260508024503 42 130 0.0 1.0 0.05 0.11 0.11 92 1011.4
20260508024003 42 130 0.0 1.0 0.06 0.11 0.11 91 1011.3
20260508023503 42 137 0.0 3.0 0.06 0.11 0.11 91 1011.4
20260508023003 42 176 0.0 3.0 0.08 0.11 0.11 91 1011.4
20260508022503 42 258 1.0 2.0 0.08 0.10 0.10 92 1011.4
20260508022003 43 266 1.0 2.0 0.09 0.10 0.10 92 1011.7
20260508021503 43 250 1.0 2.0 0.08 0.09 0.09 92 1011.5
20260508021003 43 227 1.0 2.0 0.07 0.08 0.08 91 1011.4
20260508020503 43 227 1.0 2.0 0.06 0.07 0.07 91 1011.6
20260508020003 43 227 1.0 2.0 0.06 0.07 0.07 91 1011.5
20260508015717 43 227 1.0 2.0 0.06 0.07 0.07 91 1011.5
20260508015003 43 227 1.0 2.0 0.05 0.06 0.06 90 1011.5
20260508014503 43 227 1.0 2.0 0.05 0.06 0.06 90 1011.3
20260508014003 43 236 1.0 3.0 0.04 0.05 0.05 90 1011.5
20260508013717 43 238 1.0 3.0 0.04 0.05 0.05 90 1011.3
20260508013003 43 228 1.0 3.0 0.02 0.03 0.03 90 1011.4
20260508012503 43 220 1.0 3.0 0.02 0.02 0.02 89 1011.3
20260508012003 43 192 1.0 2.0 0.01 0.01 0.01 89 1011.2
20260508011503 43 143 0.0 2.0 0.01 0.01 0.01 88 1011.0
20260508011003 43 105 0.0 1.0 0.01 0.01 0.01 88 1010.9
20260508010503 43 0 0.0 0.0 0.01 0.01 0.01 88 1010.7
20260508010003 43 0 0.0 0.0 0.01 0.01 0.01 87 1010.6
20260508005503 43 0 0.0 0.0 0.01 0.01 0.01 87 1010.4
20260508005004 43 0 0.0 0.0 0.01 0.01 0.01 87 1010.4
20260508004717 44 105 0.0 1.0 0.01 0.01 0.01 87 1010.4
20260508004003 44 106 1.0 2.0 0.01 0.01 0.01 87 1010.5
20260508003503 44 36 1.0 2.0 0.01 0.01 0.01 86 1010.6
20260508003003 44 334 1.0 2.0 0.01 0.01 0.01 85 1010.6
20260508002503 44 319 1.0 3.0 0.00 0.00 0.00 85 1010.6
20260508002004 45 299 2.0 4.0 0.00 0.00 0.00 83 1010.7
20260508001503 45 288 2.0 4.0 0.00 0.00 0.00 82 1010.6
20260508001003 46 286 2.0 4.0 0.00 0.00 0.00 80 1010.5
20260508000003 48 301 2.0 4.0 0.00 0.00 0.00 74 1010.4
20260507235503 48 276 2.0 4.0 0.00 0.00 0.00 73 1010.0
20260507235003 49 276 2.0 4.0 0.00 0.00 0.00 71 1010.1
20260507234503 49 275 1.0 3.0 0.00 0.00 0.00 72 1010.0
20260507234003 49 0 0.0 0.0 0.00 0.00 0.00 68 1009.9
20260507233718 50 0 0.0 0.0 0.00 0.00 0.00 66 1009.8
20260507233003 50 0 0.0 0.0 0.00 0.00 0.00 66 1009.7
20260507232503 50 0 0.0 0.0 0.00 0.00 0.00 66 1009.7
20260507232003 50 261 0.0 1.0 0.00 0.00 0.00 67 1009.7
20260507231503 50 261 0.0 1.0 0.00 0.00 0.00 68 1009.6
20260507231003 50 261 0.0 1.0 0.00 0.00 0.00 68 1009.7
20260507230503 50 261 0.0 3.0 0.00 0.00 0.00 68 1009.6
20260507230004 50 261 1.0 3.0 0.00 0.00 0.00 66 1009.7
20260507225718 50 261 1.0 3.0 0.00 0.00 0.00 62 1009.7
20260507225003 51 261 1.0 3.0 0.00 0.00 0.00 63 1009.7
20260507224504 51 259 1.0 3.0 0.00 0.00 0.00 62 1009.7
20260507224004 51 247 1.0 3.0 0.00 0.00 0.00 62 1009.6
20260507223503 51 232 1.0 3.0 0.00 0.00 0.00 62 1009.7
20260507223003 51 227 1.0 3.0 0.00 0.00 0.00 61 1009.8
20260507222503 51 224 1.0 3.0 0.00 0.00 0.00 61 1009.7
20260507222003 51 222 1.0 2.0 0.00 0.00 0.00 62 1009.7
20260507221503 52 223 1.0 3.0 0.00 0.00 0.00 60 1009.6
20260507221217 52 223 1.0 3.0 0.00 0.00 0.00 62 1009.6
20260507220503 52 222 1.0 3.0 0.00 0.00 0.00 62 1009.7
20260507220003 52 214 1.0 3.0 0.00 0.00 0.00 63 1009.7
20260507215718 52 216 1.0 3.0 0.00 0.00 0.00 64 1009.7
20260507215006 52 257 1.0 3.0 0.00 0.00 0.00 60 1009.9
20260507214503 52 267 1.0 3.0 0.00 0.00 0.00 58 1009.7
20260507214003 51 227 1.0 2.0 0.00 0.00 0.00 62 1009.8
20260507213717 51 208 1.0 2.0 0.00 0.00 0.00 61 1009.8
20260507213216 51 202 1.0 2.0 0.00 0.00 0.00 62 1009.8
20260507212503 51 211 0.0 2.0 0.00 0.00 0.00 63 1009.8
20260507212218 51 230 0.0 2.0 0.00 0.00 0.00 64 1009.8
20260507211503 51 267 1.0 2.0 0.00 0.00 0.00 62 1009.8
20260507211003 51 291 0.0 2.0 0.00 0.00 0.00 62 1009.8
20260507210503 51 296 0.0 2.0 0.00 0.00 0.00 66 1009.8
20260507210003 50 323 0.0 2.0 0.00 0.00 0.00 61 1009.9
20260507205503 50 302 1.0 3.0 0.00 0.00 0.00 63 1009.8
20260507205218 50 304 1.0 3.0 0.00 0.00 0.00 63 1009.9
20260507204503 51 319 1.0 3.0 0.00 0.00 0.00 64 1009.9
20260507204003 51 305 1.0 3.0 0.00 0.00 0.00 63 1009.9
20260507203717 51 302 1.0 2.0 0.00 0.00 0.00 64 1009.9
20260507203003 52 301 1.0 3.0 0.00 0.00 0.00 64 1009.8
20260507202717 52 287 1.0 3.0 0.00 0.00 0.00 62 1009.9
20260507202003 52 263 1.0 3.0 0.00 0.00 0.00 59 1009.9
20260507201503 53 266 1.0 3.0 0.00 0.00 0.00 60 1009.8
20260507201218 53 296 1.0 3.0 0.00 0.00 0.00 61 1009.8
20260507200503 54 338 1.0 3.0 0.00 0.00 0.00 60 1009.8
20260507200004 54 337 1.0 3.0 0.00 0.00 0.00 60 1009.9
20260507195503 54 343 2.0 4.0 0.00 0.00 0.00 55 1010.0
20260507195218 54 344 2.0 4.0 0.00 0.00 0.00 58 1010.0
20260507194503 54 322 2.0 4.0 0.00 0.00 0.00 54 1010.1
20260507194003 54 319 1.0 3.0 0.00 0.00 0.00 63 1010.0
20260507193503 53 313 1.0 3.0 0.00 0.00 0.00 62 1010.2
20260507193003 52 335 1.0 3.0 0.00 0.00 0.00 64 1010.2
20260507192503 51 330 1.0 3.0 0.00 0.00 0.00 61 1010.2
20260507192003 51 300 1.0 3.0 0.00 0.00 0.00 65 1010.2
20260507191503 49 124 1.0 3.0 0.00 0.00 0.00 70 1010.4
20260507191003 48 116 1.0 2.0 0.00 0.00 0.00 71 1010.4
20260507190719 48 82 0.0 2.0 0.00 0.00 0.00 73 1010.5
20260507190005 48 171 1.0 3.0 0.00 0.00 0.00 74 1010.4
20260507185503 48 121 0.0 3.0 0.00 0.00 0.00 77 1010.4
20260507185003 47 346 0.0 2.0 0.00 0.00 0.00 77 1010.5
20260507184504 47 9 0.0 2.0 0.00 0.00 0.00 77 1010.6
20260507184003 47 21 0.0 2.0 0.00 0.00 0.00 77 1010.7
20260507183503 47 0 0.0 0.0 0.00 0.00 0.00 80 1010.6
20260507183004 48 36 0.0 2.0 0.00 0.00 0.00 78 1010.7
20260507182503 48 81 1.0 4.0 0.00 0.00 0.00 78 1010.7
20260507182003 49 207 1.0 4.0 0.00 0.00 0.00 73 1010.9
20260507181503 49 263 2.0 4.0 0.00 0.00 0.00 68 1010.9
20260507181003 50 277 2.0 3.0 0.00 0.00 0.00 69 1011.0
20260507180503 50 209 1.0 3.0 0.00 0.00 0.00 62 1010.7
20260507180003 50 166 1.0 3.0 0.00 0.00 0.00 64 1010.6
20260507175504 50 200 1.0 3.0 0.00 0.00 0.00 62 1010.5
20260507175003 50 201 2.0 6.0 0.00 0.00 0.00 59 1010.5
20260507174503 51 201 3.0 9.0 0.00 0.00 0.00 60 1010.6
20260507174003 52 209 2.0 9.0 0.00 0.00 0.00 55 1010.6
20260507173503 52 297 1.0 3.0 0.00 0.00 0.00 59 1010.7
20260507173004 52 331 1.0 3.0 0.00 0.00 0.00 56 1010.6
20260507172503 53 342 1.0 3.0 0.00 0.00 0.00 59 1010.5
20260507172003 53 356 1.0 5.0 0.00 0.00 0.00 59 1010.5
20260507171503 54 12 1.0 5.0 0.00 0.00 0.00 53 1010.5
20260507171010 54 8 1.0 3.0 0.00 0.00 0.00 54 1010.5
20260507170503 54 336 1.0 3.0 0.00 0.00 0.00 55 1010.5
20260507170003 54 314 1.0 2.0 0.00 0.00 0.00 53 1010.6
20260507165503 54 313 1.0 2.0 0.00 0.00 0.00 54 1010.7
20260507165217 54 334 1.0 3.0 0.00 0.00 0.00 54 1010.7
20260507164503 55 220 2.0 6.0 0.00 0.00 0.00 58 1010.8
20260507164003 54 216 2.0 6.0 0.00 0.00 0.00 50 1010.9
20260507163503 54 234 2.0 6.0 0.00 0.00 0.00 50 1011.0
20260507163003 54 216 2.0 6.0 0.00 0.00 0.00 52 1011.0
20260507162504 54 229 2.0 6.0 0.00 0.00 0.00 55 1011.1
20260507162004 53 241 2.0 5.0 0.00 0.00 0.00 53 1011.1
20260507161503 53 253 2.0 5.0 0.00 0.00 0.00 61 1011.2
20260507161003 53 315 1.0 3.0 0.00 0.00 0.00 63 1011.2
20260507160503 52 327 1.0 5.0 0.00 0.00 0.00 60 1011.3
20260507160003 52 337 1.0 5.0 0.00 0.00 0.00 56 1011.3
20260507155717 52 346 1.0 3.0 0.00 0.00 0.00 62 1011.3
20260507155005 52 248 2.0 4.0 0.00 0.00 0.00 59 1011.4
20260507154504 52 228 2.0 4.0 0.00 0.00 0.00 63 1011.4
20260507154003 51 238 2.0 4.0 0.00 0.00 0.00 62 1011.5
20260507153504 51 213 1.0 5.0 0.00 0.00 0.00 67 1011.5
20260507153218 51 186 1.0 5.0 0.00 0.00 0.00 62 1011.5
20260507152503 50 212 2.0 5.0 0.00 0.00 0.00 67 1011.4
20260507152218 50 211 1.0 5.0 0.00 0.00 0.00 62 1011.6
20260507151504 50 227 1.0 4.0 0.00 0.00 0.00 68 1011.7
20260507151003 50 291 1.0 4.0 0.00 0.00 0.00 69 1011.7
20260507150503 49 279 1.0 4.0 0.00 0.00 0.00 66 1011.8
20260507150218 49 234 1.0 4.0 0.00 0.01 0.00 70 1011.8
20260507145503 49 247 1.0 3.0 0.00 0.01 0.00 65 1011.9
20260507145003 48 254 2.0 4.0 0.00 0.01 0.00 68 1011.9
20260507144503 48 237 2.0 4.0 0.00 0.01 0.00 66 1011.9
20260507144218 48 237 2.0 4.0 0.00 0.01 0.00 68 1011.8
20260507143717 48 230 2.0 4.0 0.00 0.01 0.00 70 1011.9
20260507143003 47 218 2.0 4.0 0.00 0.01 0.00 68 1011.9
20260507142504 47 195 2.0 4.0 0.00 0.01 0.00 70 1011.9
20260507142218 46 207 2.0 3.0 0.00 0.01 0.00 73 1011.9
20260507141503 46 228 1.0 3.0 0.00 0.02 0.00 71 1011.9
20260507141003 45 223 1.0 4.0 0.00 0.02 0.00 70 1011.9
20260507140503 45 223 1.0 4.0 0.00 0.02 0.00 70 1012.0
20260507140006 45 218 1.0 4.0 0.00 0.02 0.00 73 1012.1
20260507135503 45 0 0.0 0.0 0.00 0.02 0.00 74 1012.2
20260507135003 45 182 0.0 2.0 0.00 0.02 0.00 78 1012.1
20260507134503 44 182 0.0 2.0 0.00 0.02 0.00 75 1012.2
20260507134003 44 149 1.0 2.0 0.00 0.02 0.00 74 1012.3
20260507133718 44 154 1.0 2.0 0.00 0.02 0.00 76 1012.4
20260507133003 44 30 1.0 4.0 0.00 0.03 0.00 73 1012.4
20260507132718 43 33 1.0 4.0 0.00 0.03 0.00 73 1012.4
20260507132003 43 14 1.0 2.0 0.00 0.03 0.00 77 1012.5
20260507131718 43 24 1.0 3.0 0.00 0.03 0.00 80 1012.5
20260507131003 42 46 1.0 4.0 0.00 0.03 0.00 78 1012.5
20260507130503 42 44 1.0 3.0 0.00 0.03 0.00 80 1012.5
20260507130217 42 37 1.0 4.0 0.00 0.03 0.00 81 1012.5
20260507125503 41 43 1.0 4.0 0.00 0.03 0.00 86 1012.6
20260507125217 41 57 0.0 2.0 0.00 0.03 0.00 87 1012.5
20260507124504 40 0 0.0 0.0 0.00 0.04 0.00 89 1012.6
20260507124004 40 0 0.0 0.0 0.00 0.04 0.00 91 1012.6
20260507123503 40 0 0.0 0.0 0.00 0.04 0.00 92 1012.7
20260507123217 40 0 0.0 0.0 0.00 0.05 0.00 92 1012.7
20260507122503 40 0 0.0 0.0 0.00 0.05 0.00 92 1012.6
20260507122004 40 0 0.0 0.0 0.00 0.05 0.00 91 1012.7
20260507121503 40 0 0.0 0.0 0.00 0.05 0.00 91 1012.7
20260507121006 40 0 0.0 0.0 0.00 0.05 0.00 93 1012.8
20260507120503 40 0 0.0 0.0 0.00 0.06 0.00 93 1012.9
20260507120005 40 0 0.0 0.0 0.00 0.06 0.00 93 1013.0
20260507115503 40 0 0.0 0.0 0.00 0.06 0.00 94 1012.9
20260507114718 41 0 0.0 0.0 0.00 0.06 0.00 94 1012.8
20260507114217 41 0 0.0 0.0 0.00 0.06 0.00 95 1012.9
20260507113718 41 0 0.0 0.0 0.00 0.07 0.00 95 1012.9
20260507113004 41 0 0.0 0.0 0.00 0.07 0.00 96 1012.8
20260507112503 41 0 0.0 0.0 0.00 0.07 0.00 96 1012.7
20260507112003 41 0 0.0 0.0 0.00 0.08 0.00 96 1012.6
20260507111504 41 0 0.0 0.0 0.00 0.08 0.00 96 1012.6
20260507111003 41 0 0.0 0.0 0.00 0.08 0.00 96 1012.4
20260507110503 41 0 0.0 0.0 0.00 0.08 0.00 96 1012.3
20260507110218 41 0 0.0 0.0 0.00 0.09 0.00 96 1012.2
20260507105503 41 0 0.0 0.0 0.00 0.09 0.00 96 1012.2
20260507105003 40 0 0.0 0.0 0.00 0.09 0.00 95 1012.1
20260507104504 40 0 0.0 0.0 0.00 0.09 0.00 95 1012.1
20260507104003 40 0 0.0 0.0 0.00 0.09 0.00 96 1012.1
20260507103503 40 0 0.0 0.0 0.00 0.10 0.00 96 1012.1
20260507103218 40 0 0.0 0.0 0.00 0.10 0.00 96 1012.0
20260507102503 40 0 0.0 0.0 0.00 0.10 0.00 96 1011.9
20260507102003 40 0 0.0 0.0 0.00 0.10 0.00 95 1011.9
20260507101717 40 0 0.0 0.0 0.00 0.11 0.00 95 1011.9
20260507101003 40 0 0.0 0.0 0.00 0.11 0.00 95 1011.9
20260507100503 40 5 0.0 1.0 0.00 0.11 0.00 96 1011.9
20260507100004 40 5 0.0 1.0 0.00 0.12 0.00 96 1012.0
20260507095718 40 0 0.0 0.0 0.00 0.12 0.00 95 1012.0
20260507095003 39 5 0.0 1.0 0.00 0.13 0.00 95 1012.0
20260507094503 39 5 0.0 1.0 0.00 0.13 0.00 95 1012.1
20260507094003 39 0 0.0 0.0 0.00 0.14 0.00 95 1012.0
20260507093503 39 0 0.0 0.0 0.00 0.14 0.00 95 1012.0
20260507093003 39 0 0.0 0.0 0.00 0.15 0.00 95 1012.1
20260507092503 39 0 0.0 0.0 0.00 0.15 0.00 95 1011.9
20260507092003 39 5 0.0 1.0 0.00 0.16 0.00 95 1012.0
20260507091717 39 5 0.0 1.0 0.00 0.16 0.00 95 1011.7
20260507091003 39 0 0.0 0.0 0.00 0.17 0.00 95 1012.1
20260507090717 38 0 0.0 0.0 0.00 0.17 0.00 95 1012.1
20260507090004 38 0 0.0 0.0 0.00 0.19 0.00 95 1012.2
20260507085503 38 0 0.0 0.0 0.00 0.19 0.00 95 1012.2
20260507085003 38 0 0.0 0.0 0.00 0.19 0.00 95 1012.0
20260507084503 38 0 0.0 0.0 0.00 0.20 0.00 95 1012.0
20260507084003 38 0 0.0 0.0 0.00 0.21 0.00 94 1012.0
20260507083503 38 0 0.0 0.0 0.00 0.21 0.00 94 1012.1
20260507083003 38 0 0.0 0.0 0.00 0.22 0.00 94 1011.9
20260507082719 38 0 0.0 0.0 0.00 0.22 0.00 94 1012.0
20260507082003 38 0 0.0 0.0 0.00 0.23 0.00 94 1012.0
20260507081504 38 0 0.0 0.0 0.00 0.24 0.00 94 1012.0